20040323,000010,0,32.707190,-117.236750,NaN,21.573,32.836,46.784,557.01,0.0, NaN,16.911,16.872, NaN,22.692,   NaN,15.12,1009.43,87.47,15.10,51.3,60.0,1.8,1.7,231.3,239.9,1.8,1.7,NaN, NaN,NaN,86.3,NaN,1080000010,NaN,NaN,0.0,000009,   NaN,180.3,32.707310,-117.236700,NaN,NaN,NaN,21.578, NaN,NaN,NaN, NaN, NaN
20040323,000040,30,32.707190,-117.236750,NaN,21.577,32.836,46.788,573.60,0.0, NaN,16.910,16.870, NaN,22.691,   NaN,15.10,1009.43,87.55,15.08,52.4,59.5,1.6,1.8,232.4,239.5,1.6,1.8,NaN, NaN,NaN,86.3,NaN,1080000041,NaN,NaN,0.0,000039,   NaN,179.8,32.707320,-117.236700,NaN,NaN,NaN,21.582, NaN,NaN,NaN, NaN, NaN
20040323,000110,60,32.707190,-117.236750,NaN,21.580,32.837,46.792,589.11,0.0, NaN,16.908,16.869, NaN,22.691,   NaN,15.07,1009.43,87.63,15.05,67.7,70.6,1.9,2.1,247.7,250.6,1.9,2.1,NaN, NaN,NaN,86.3,NaN,1080000070,NaN,NaN,0.0,000069,   NaN,180.1,32.707320,-117.236700,NaN,NaN,NaN,21.585, NaN,NaN,NaN, NaN, NaN
20040323,000140,90,32.707190,-117.236760,NaN,21.583,32.838,46.796,598.42,0.0, NaN,16.907,16.869, NaN,22.691,   NaN,15.09,1009.45,87.79,15.04,63.7,74.0,1.8,1.9,243.7,254.0,1.8,1.9,NaN, NaN,NaN,86.3,NaN,1080000100,NaN,NaN,0.0,000099,   NaN,180.0,32.707320,-117.236700,NaN,NaN,NaN,21.588, NaN,NaN,NaN, NaN, NaN
20040323,000210,120,32.707180,-117.236760,NaN,21.586,32.838,46.799,596.99,0.0, NaN,16.906,16.870, NaN,22.690,   NaN,15.08,1009.45,87.90,15.04,65.4,75.9,1.7,1.7,245.5,256.0,1.7,1.7,NaN, NaN,NaN,86.3,NaN,1080000130,NaN,NaN,0.0,000129,   NaN,180.1,32.707310,-117.236700,NaN,NaN,NaN,21.591, NaN,NaN,NaN, NaN, NaN
20040323,000240,150,32.707190,-117.236740,NaN,21.590,32.838,46.803,593.09,0.0, NaN,16.909,16.871, NaN,22.689,   NaN,15.11,1009.44,88.08,15.05,78.0,78.0,2.3,2.1,258.0,258.0,2.3,2.1,NaN, NaN,NaN,86.3,NaN,1080000161,NaN,NaN,0.0,000159,   NaN,179.6,32.707310,-117.236710,NaN,NaN,NaN,21.595, NaN,NaN,NaN, NaN, NaN
20040323,000310,179,32.707190,-117.236750,NaN,21.592,32.839,46.807,581.70,0.0, NaN,16.909,16.871, NaN,22.689,   NaN,15.10,1009.47,87.93,15.04,87.1,86.0,2.4,2.5,267.2,266.1,2.4,2.5,NaN, NaN,NaN,86.3,NaN,1080000190,NaN,NaN,0.0,000189,   NaN,180.8,32.707310,-117.236710,NaN,NaN,NaN,21.597, NaN,NaN,NaN, NaN, NaN
20040323,000340,210,32.707190,-117.236750,NaN,21.596,32.840,46.811,576.47,0.0, NaN,16.910,16.871, NaN,22.689,   NaN,15.13,1009.49,88.17,15.07,87.2,96.6,1.5,1.7,267.3,276.7,1.5,1.7,NaN, NaN,NaN,86.3,NaN,1080000221,NaN,NaN,0.0,000219,   NaN,179.8,32.707310,-117.236700,NaN,NaN,NaN,21.601, NaN,NaN,NaN, NaN, NaN
20040323,000410,240,32.707190,-117.236750,NaN,21.599,32.840,46.815,577.33,0.0, NaN,16.909,16.869, NaN,22.688,   NaN,15.22,1009.50,88.18,15.08,91.1,103.2,1.0,1.2,271.1,283.2,1.0,1.2,NaN, NaN,NaN,86.3,NaN,1080000251,NaN,NaN,0.0,000249,   NaN,180.1,32.707310,-117.236700,NaN,NaN,NaN,21.604, NaN,NaN,NaN, NaN, NaN
20040323,000440,270,32.707190,-117.236760,NaN,21.602,32.841,46.819,586.60,0.0, NaN,16.907,16.869, NaN,22.688,   NaN,15.19,1009.50,87.83,15.09,103.0,112.4,1.6,1.7,283.1,292.5,1.6,1.7,NaN, NaN,NaN,86.3,NaN,1080000281,NaN,NaN,0.0,000279,   NaN,180.6,32.707310,-117.236700,NaN,NaN,NaN,21.607, NaN,NaN,NaN, NaN, NaN
20040323,000510,300,32.707180,-117.236760,NaN,21.605,32.842,46.823,600.55,0.0, NaN,16.905,16.866, NaN,22.687,   NaN,15.17,1009.53,87.74,15.08,78.3,102.2,1.3,1.3,258.7,282.6,1.3,1.3,NaN, NaN,NaN,86.3,NaN,1080000311,NaN,NaN,0.0,000309,   NaN,180.3,32.707310,-117.236700,NaN,NaN,NaN,21.610, NaN,NaN,NaN, NaN, NaN
20040323,000540,330,32.707190,-117.236740,NaN,21.608,32.842,46.826,614.75,0.0, NaN,16.903,16.864, NaN,22.687,   NaN,15.10,1009.48,87.48,15.05,68.3,78.5,2.0,1.7,248.5,258.6,2.0,1.7,NaN, NaN,NaN,86.3,NaN,1080000341,NaN,NaN,0.0,000339,   NaN,179.6,32.707310,-117.236700,NaN,NaN,NaN,21.613, NaN,NaN,NaN, NaN, NaN
20040323,000610,360,32.707180,-117.236750,NaN,21.612,32.842,46.830,631.19,0.0, NaN,16.903,16.863, NaN,22.686,   NaN,14.96,1009.53,87.21,14.98,75.2,79.9,2.8,2.6,255.2,259.9,2.8,2.6,NaN, NaN,NaN,86.3,NaN,1080000370,NaN,NaN,0.0,000369,   NaN,180.3,32.707310,-117.236700,NaN,NaN,NaN,21.617, NaN,NaN,NaN, NaN, NaN
20040323,000640,390,32.707180,-117.236750,NaN,21.615,32.844,46.834,653.88,0.0, NaN,16.902,16.863, NaN,22.686,   NaN,14.87,1009.51,87.47,14.92,76.5,82.8,2.7,2.4,256.6,262.9,2.7,2.4,NaN, NaN,NaN,86.3,NaN,1080000401,NaN,NaN,0.0,000399,   NaN,180.0,32.707310,-117.236700,NaN,NaN,NaN,21.620, NaN,NaN,NaN, NaN, NaN
20040323,000710,420,32.707190,-117.236760,NaN,21.618,32.844,46.838,660.77,0.0, NaN,16.901,16.864, NaN,22.685,   NaN,14.82,1009.51,87.73,14.85,71.9,77.2,3.1,2.1,252.0,257.3,3.1,2.1,NaN, NaN,NaN,86.3,NaN,1080000431,NaN,NaN,0.0,000429,   NaN,180.1,32.707310,-117.236700,NaN,NaN,NaN,21.623, NaN,NaN,NaN, NaN, NaN
20040323,000740,450,32.707200,-117.236760,NaN,21.621,32.844,46.842,649.74,0.0, NaN,16.899,16.861, NaN,22.685,   NaN,14.80,1009.49,88.10,14.83,76.2,78.6,3.1,2.6,256.3,258.7,3.1,2.6,NaN, NaN,NaN,86.3,NaN,1080000461,NaN,NaN,0.0,000459,   NaN,180.3,32.707310,-117.236700,NaN,NaN,NaN,21.626, NaN,NaN,NaN, NaN, NaN
20040323,000810,480,32.707190,-117.236750,NaN,21.625,32.845,46.846,637.85,0.0, NaN,16.897,16.860, NaN,22.685,   NaN,14.83,1009.50,88.36,14.79,87.9,88.8,2.6,2.8,268.0,269.0,2.6,2.8,NaN, NaN,NaN,86.3,NaN,1080000490,NaN,NaN,0.0,000489,   NaN,180.3,32.707310,-117.236700,NaN,NaN,NaN,21.630, NaN,NaN,NaN, NaN, NaN
20040323,000840,509,32.707210,-117.236740,NaN,21.628,32.846,46.849,627.13,0.0, NaN,16.898,16.860, NaN,22.684,   NaN,14.81,1009.50,88.41,14.78,93.5,100.1,2.6,3.0,273.7,280.2,2.6,3.0,NaN, NaN,NaN,86.3,NaN,1080000521,NaN,NaN,0.0,000519,   NaN,180.1,32.707310,-117.236700,NaN,NaN,NaN,21.633, NaN,NaN,NaN, NaN, NaN
20040323,000910,540,32.707200,-117.236750,NaN,21.630,32.846,46.853,594.37,0.0, NaN,16.898,16.860, NaN,22.684,   NaN,14.79,1009.56,88.57,14.78,78.9,92.0,2.2,2.4,259.2,272.2,2.2,2.4,NaN, NaN,NaN,86.3,NaN,1080000550,NaN,NaN,0.0,000549,   NaN,180.3,32.707310,-117.236700,NaN,NaN,NaN,21.635, NaN,NaN,NaN, NaN, NaN
20040323,000940,570,32.707190,-117.236740,NaN,21.634,32.847,46.857,453.10,0.0, NaN,16.894,16.857, NaN,22.684,   NaN,14.84,1009.58,88.76,14.78,61.4,71.3,1.9,1.7,241.6,251.5,1.9,1.7,NaN, NaN,NaN,86.3,NaN,1080000580,NaN,NaN,0.0,000579,   NaN,180.1,32.707310,-117.236700,NaN,NaN,NaN,21.639, NaN,NaN,NaN, NaN, NaN
20040323,001010,600,32.707200,-117.236740,NaN,21.637,32.847,46.860,300.70,0.0, NaN,16.892,16.853, NaN,22.683,   NaN,14.86,1009.58,88.87,14.78,62.7,66.2,1.7,1.4,242.9,246.4,1.7,1.4,NaN, NaN,NaN,86.3,NaN,1080000611,NaN,NaN,0.0,000609,   NaN,180.5,32.707310,-117.236700,NaN,NaN,NaN,21.642, NaN,NaN,NaN, NaN, NaN
20040323,001040,630,32.707200,-117.236740,NaN,21.640,32.848,46.864,251.79,0.0, NaN,16.890,16.851, NaN,22.683,   NaN,14.91,1009.60,88.91,14.78,60.7,64.9,1.6,1.3,241.0,245.1,1.6,1.3,NaN, NaN,NaN,86.3,NaN,1080000641,NaN,NaN,0.0,000639,   NaN,180.0,32.707310,-117.236700,NaN,NaN,NaN,21.645, NaN,NaN,NaN, NaN, NaN
20040323,001110,660,32.707200,-117.236750,NaN,21.643,32.849,46.868,218.39,0.0, NaN,16.890,16.850, NaN,22.682,   NaN,14.92,1009.61,88.84,14.79,62.0,67.2,1.7,1.4,242.1,247.4,1.7,1.4,NaN, NaN,NaN,86.3,NaN,1080000671,NaN,NaN,0.0,000669,   NaN,180.0,32.707320,-117.236700,NaN,NaN,NaN,21.648, NaN,NaN,NaN, NaN, NaN
20040323,001140,689,32.707200,-117.236760,NaN,21.646,32.849,46.872,170.96,0.0, NaN,16.889,16.850, NaN,22.682,   NaN,14.98,1009.61,88.93,14.84,66.8,109.5,0.9,1.0,247.0,289.5,0.9,1.0,NaN, NaN,NaN,86.3,NaN,1080000700,NaN,NaN,0.0,000699,   NaN,180.6,32.707320,-117.236700,NaN,NaN,NaN,21.651, NaN,NaN,NaN, NaN, NaN
20040323,001210,720,32.707190,-117.236760,NaN,21.649,32.850,46.875,145.25,0.0, NaN,16.890,16.852, NaN,22.682,   NaN,15.00,1009.60,88.86,14.84,46.4,132.1,0.5,0.8,226.9,311.8,0.5,0.8,NaN, NaN,NaN,86.3,NaN,1080000731,NaN,NaN,0.0,000729,   NaN,180.3,32.707320,-117.236700,NaN,NaN,NaN,21.654, NaN,NaN,NaN, NaN, NaN
20040323,001240,750,32.707200,-117.236760,NaN,21.652,32.851,46.879,134.04,0.0, NaN,16.883,16.847, NaN,22.681,   NaN,14.94,1009.58,88.49,14.82,40.2,24.7,1.4,1.4,220.4,204.7,1.4,1.4,NaN, NaN,NaN,86.3,NaN,1080000761,NaN,NaN,0.0,000759,   NaN,179.6,32.707320,-117.236700,NaN,NaN,NaN,21.657, NaN,NaN,NaN, NaN, NaN
20040323,001310,780,32.707190,-117.236750,NaN,21.655,32.851,46.883,127.94,0.0, NaN,16.882,16.845, NaN,22.681,   NaN,14.83,1009.57,88.44,14.78,57.5,60.0,2.2,2.1,237.3,239.8,2.2,2.1,NaN, NaN,NaN,86.3,NaN,1080000790,NaN,NaN,0.0,000789,   NaN,179.6,32.707320,-117.236700,NaN,NaN,NaN,21.660, NaN,NaN,NaN, NaN, NaN
20040323,001340,810,32.707190,-117.236740,NaN,21.658,32.851,46.886,124.87,0.0, NaN,16.880,16.845, NaN,22.680,   NaN,14.81,1009.61,88.39,14.77,81.9,85.9,2.6,2.9,261.7,265.8,2.6,2.9,NaN, NaN,NaN,86.3,NaN,1080000821,NaN,NaN,0.0,000819,   NaN,180.3,32.707320,-117.236700,NaN,NaN,NaN,21.663, NaN,NaN,NaN, NaN, NaN
20040323,001410,840,32.707190,-117.236750,NaN,21.661,32.853,46.890,122.85,0.0, NaN,16.877,16.842, NaN,22.681,   NaN,14.68,1009.61,88.26,14.73,98.2,104.6,3.0,3.6,278.2,284.7,3.0,3.6,NaN, NaN,NaN,86.3,NaN,1080000851,NaN,NaN,0.0,000849,   NaN,180.3,32.707320,-117.236700,NaN,NaN,NaN,21.666, NaN,NaN,NaN, NaN, NaN
20040323,001440,870,32.707190,-117.236740,NaN,21.664,32.853,46.894,121.30,0.0, NaN,16.874,16.838, NaN,22.680,   NaN,14.67,1009.63,88.68,14.69,94.3,101.2,2.8,3.2,274.5,281.5,2.8,3.2,NaN, NaN,NaN,86.3,NaN,1080000881,NaN,NaN,0.0,000879,   NaN,180.3,32.707320,-117.236700,NaN,NaN,NaN,21.669, NaN,NaN,NaN, NaN, NaN
20040323,001510,900,32.707190,-117.236760,NaN,21.666,32.854,46.897,119.76,0.0, NaN,16.874,16.836, NaN,22.680,   NaN,14.73,1009.65,88.87,14.70,79.7,89.1,2.2,2.2,260.1,269.5,2.2,2.2,NaN, NaN,NaN,86.3,NaN,1080000911,NaN,NaN,0.0,000909,   NaN,180.5,32.707320,-117.236700,NaN,NaN,NaN,21.671, NaN,NaN,NaN, NaN, NaN
20040323,001540,930,32.707190,-117.236740,NaN,21.670,32.854,46.901,119.70,0.0, NaN,16.870,16.834, NaN,22.679,   NaN,14.73,1009.66,88.77,14.68,82.0,90.3,2.3,2.2,262.4,270.6,2.3,2.2,NaN, NaN,NaN,86.3,NaN,1080000941,NaN,NaN,0.0,000939,   NaN,180.1,32.707320,-117.236700,NaN,NaN,NaN,21.675, NaN,NaN,NaN, NaN, NaN
20040323,001610,960,32.707190,-117.236740,NaN,21.673,32.855,46.905,123.48,0.0, NaN,16.867,16.831, NaN,22.679,   NaN,14.67,1009.66,88.66,14.66,91.1,92.6,2.8,3.0,271.4,272.8,2.8,3.0,NaN, NaN,NaN,86.3,NaN,1080000970,NaN,NaN,0.0,000969,   NaN,180.3,32.707310,-117.236700,NaN,NaN,NaN,21.678, NaN,NaN,NaN, NaN, NaN
20040323,001640,990,32.707200,-117.236760,NaN,21.675,32.856,46.908,131.23,0.0, NaN,16.866,16.829, NaN,22.679,   NaN,14.66,1009.66,88.94,14.63,87.9,97.3,2.1,2.5,268.1,277.5,2.1,2.5,NaN, NaN,NaN,86.3,NaN,1080001001,NaN,NaN,0.0,000999,   NaN,180.1,32.707310,-117.236700,NaN,NaN,NaN,21.680, NaN,NaN,NaN, NaN, NaN
20040323,001710,1019,32.707190,-117.236740,NaN,21.678,32.856,46.912,138.72,0.0, NaN,16.865,16.827, NaN,22.679,   NaN,14.71,1009.68,89.09,14.64,92.1,106.0,1.1,1.6,272.5,286.3,1.1,1.6,NaN, NaN,NaN,86.3,NaN,1080001030,NaN,NaN,0.0,001029,   NaN,180.6,32.707310,-117.236700,NaN,NaN,NaN,21.683, NaN,NaN,NaN, NaN, NaN
20040323,001740,1050,32.707190,-117.236760,NaN,21.681,32.857,46.916,146.47,0.0, NaN,16.861,16.825, NaN,22.678,   NaN,14.76,1009.67,89.13,14.64,69.3,90.4,0.8,1.1,249.8,270.8,0.8,1.1,NaN, NaN,NaN,86.3,NaN,1080001061,NaN,NaN,0.0,001059,   NaN,180.1,32.707310,-117.236700,NaN,NaN,NaN,21.686, NaN,NaN,NaN, NaN, NaN
20040323,001810,1080,32.707190,-117.236750,NaN,21.684,32.858,46.919,153.25,0.0, NaN,16.860,16.822, NaN,22.678,   NaN,14.77,1009.67,89.04,14.66,63.2,89.3,1.2,1.6,243.4,269.5,1.2,1.6,NaN, NaN,NaN,86.3,NaN,1080001091,NaN,NaN,0.0,001089,   NaN,179.8,32.707310,-117.236700,NaN,NaN,NaN,21.689, NaN,NaN,NaN, NaN, NaN
20040323,001840,1110,32.707190,-117.236740,NaN,21.686,32.859,46.923,157.14,0.0, NaN,16.858,16.820, NaN,22.678,   NaN,14.73,1009.70,88.71,14.64,82.9,89.9,2.4,2.3,263.0,270.0,2.4,2.3,NaN, NaN,NaN,86.3,NaN,1080001120,NaN,NaN,0.0,001119,   NaN,180.3,32.707310,-117.236700,NaN,NaN,NaN,21.691, NaN,NaN,NaN, NaN, NaN
20040323,001910,1140,32.707180,-117.236740,NaN,21.690,32.859,46.926,160.42,0.0, NaN,16.856,16.820, NaN,22.677,   NaN,14.67,1009.67,88.67,14.61,87.9,88.2,2.7,2.6,268.1,268.3,2.7,2.6,NaN, NaN,NaN,86.3,NaN,1080001150,NaN,NaN,0.0,001149,   NaN,180.5,32.707310,-117.236700,NaN,NaN,NaN,21.695, NaN,NaN,NaN, NaN, NaN
20040323,001940,1170,32.707190,-117.236740,NaN,21.692,32.860,46.930,165.68,0.0, NaN,16.856,16.818, NaN,22.677,   NaN,14.66,1009.69,88.79,14.59,94.4,94.1,2.4,2.7,274.7,274.5,2.4,2.7,NaN, NaN,NaN,86.3,NaN,1080001181,NaN,NaN,0.0,001179,   NaN,180.5,32.707310,-117.236700,NaN,NaN,NaN,21.697, NaN,NaN,NaN, NaN, NaN
20040323,002010,1199,32.707190,-117.236740,NaN,21.695,32.861,46.934,172.17,0.0, NaN,16.856,16.818, NaN,22.677,   NaN,14.67,1009.72,88.93,14.59,94.5,95.5,2.5,2.6,274.9,275.9,2.5,2.6,NaN, NaN,NaN,86.3,NaN,1080001210,NaN,NaN,0.0,001209,   NaN,180.3,32.707310,-117.236700,NaN,NaN,NaN,21.700, NaN,NaN,NaN, NaN, NaN
20040323,002040,1230,32.707190,-117.236740,NaN,21.698,32.861,46.937,177.93,0.0, NaN,16.856,16.818, NaN,22.677,   NaN,14.70,1009.70,88.99,14.59,88.5,94.4,2.1,2.3,268.8,274.7,2.1,2.3,NaN, NaN,NaN,86.3,NaN,1080001240,NaN,NaN,0.0,001239,   NaN,180.0,32.707310,-117.236700,NaN,NaN,NaN,21.703, NaN,NaN,NaN, NaN, NaN
20040323,002110,1260,32.707190,-117.236740,NaN,21.700,32.862,46.941,185.96,0.0, NaN,16.853,16.816, NaN,22.677,   NaN,14.66,1009.68,88.82,14.58,78.2,91.2,1.6,2.0,258.3,271.2,1.6,2.0,NaN, NaN,NaN,86.3,NaN,1080001271,NaN,NaN,0.0,001269,   NaN,180.0,32.707310,-117.236700,NaN,NaN,NaN,21.705, NaN,NaN,NaN, NaN, NaN
20040323,002140,1290,32.707190,-117.236740,NaN,21.703,32.863,46.944,198.43,0.0, NaN,16.850,16.811, NaN,22.677,   NaN,14.66,1009.70,88.91,14.57,76.3,85.0,1.9,1.7,256.3,265.1,1.9,1.7,NaN, NaN,NaN,86.3,NaN,1080001300,NaN,NaN,0.0,001299,   NaN,180.3,32.707310,-117.236700,NaN,NaN,NaN,21.708, NaN,NaN,NaN, NaN, NaN
20040323,002210,1320,32.707180,-117.236730,NaN,21.706,32.863,46.948,213.72,0.0, NaN,16.848,16.811, NaN,22.676,   NaN,14.62,1009.67,88.80,14.56,71.2,78.0,2.1,1.8,251.3,258.1,2.1,1.8,NaN, NaN,NaN,86.3,NaN,1080001330,NaN,NaN,0.0,001329,   NaN,180.0,32.707310,-117.236700,NaN,NaN,NaN,21.711, NaN,NaN,NaN, NaN, NaN
20040323,002240,1350,32.707180,-117.236740,NaN,21.709,32.864,46.951,228.81,0.0, NaN,16.846,16.808, NaN,22.676,   NaN,14.59,1009.68,88.85,14.53,61.3,70.7,1.9,1.8,241.5,250.9,1.9,1.8,NaN, NaN,NaN,86.3,NaN,1080001361,NaN,NaN,0.0,001359,   NaN,180.0,32.707310,-117.236700,NaN,NaN,NaN,21.714, NaN,NaN,NaN, NaN, NaN
20040323,002310,1380,32.707190,-117.236740,NaN,21.711,32.865,46.955,243.65,0.0, NaN,16.845,16.807, NaN,22.676,   NaN,14.58,1009.65,88.92,14.53,55.2,66.4,2.5,1.9,235.3,246.4,2.5,1.9,NaN, NaN,NaN,86.3,NaN,1080001391,NaN,NaN,0.0,001389,   NaN,180.1,32.707310,-117.236700,NaN,NaN,NaN,21.716, NaN,NaN,NaN, NaN, NaN
20040323,002340,1410,32.707190,-117.236740,NaN,21.714,32.865,46.958,260.41,0.0, NaN,16.847,16.808, NaN,22.676,   NaN,14.54,1009.62,88.82,14.50,66.2,70.9,2.8,2.2,246.1,250.8,2.8,2.2,NaN, NaN,NaN,86.3,NaN,1080001421,NaN,NaN,0.0,001419,   NaN,179.8,32.707310,-117.236700,NaN,NaN,NaN,21.719, NaN,NaN,NaN, NaN, NaN
20040323,002410,1440,32.707190,-117.236730,NaN,21.717,32.866,46.962,277.61,0.0, NaN,16.845,16.805, NaN,22.675,   NaN,14.50,1009.64,88.91,14.48,84.3,92.0,2.3,2.3,264.4,272.0,2.3,2.3,NaN, NaN,NaN,86.3,NaN,1080001450,NaN,NaN,0.0,001449,   NaN,180.6,32.707310,-117.236700,NaN,NaN,NaN,21.722, NaN,NaN,NaN, NaN, NaN
20040323,002440,1470,32.707200,-117.236740,NaN,21.719,32.866,46.965,296.45,0.0, NaN,16.846,16.807, NaN,22.675,   NaN,14.51,1009.61,89.12,14.46,91.9,98.4,2.0,2.1,272.3,278.7,2.0,2.1,NaN, NaN,NaN,86.3,NaN,1080001480,NaN,NaN,0.0,001479,   NaN,180.3,32.707310,-117.236700,NaN,NaN,NaN,21.724, NaN,NaN,NaN, NaN, NaN
20040323,002510,1500,32.707200,-117.236740,NaN,21.722,32.867,46.969,318.98,0.0, NaN,16.843,16.805, NaN,22.675,   NaN,14.51,1009.58,89.05,14.45,88.5,89.9,2.4,2.3,268.7,270.1,2.4,2.3,NaN, NaN,NaN,86.3,NaN,1080001510,NaN,NaN,0.0,001509,   NaN,179.6,32.707310,-117.236700,NaN,NaN,NaN,21.727, NaN,NaN,NaN, NaN, NaN
20040323,002540,1529,32.707190,-117.236740,NaN,21.725,32.868,46.972,339.99,0.0, NaN,16.843,16.804, NaN,22.675,   NaN,14.45,1009.58,89.00,14.43,86.1,89.1,2.8,2.8,266.1,269.0,2.8,2.8,NaN, NaN,NaN,86.3,NaN,1080001540,NaN,NaN,0.0,001539,   NaN,180.5,32.707310,-117.236700,NaN,NaN,NaN,21.730, NaN,NaN,NaN, NaN, NaN
20040323,002610,1560,32.707200,-117.236740,NaN,21.727,32.869,46.976,356.29,0.0, NaN,16.845,16.807, NaN,22.675,   NaN,14.42,1009.57,89.17,14.43,92.8,95.6,2.5,2.8,272.9,275.7,2.5,2.8,NaN, NaN,NaN,86.3,NaN,1080001571,NaN,NaN,0.0,001569,   NaN,180.1,32.707310,-117.236700,NaN,NaN,NaN,21.732, NaN,NaN,NaN, NaN, NaN
20040323,002640,1590,32.707190,-117.236740,NaN,21.730,32.870,46.979,376.60,0.0, NaN,16.841,16.804, NaN,22.675,   NaN,14.44,1009.54,89.40,14.41,108.2,109.0,2.0,2.4,288.5,289.3,2.0,2.4,NaN, NaN,NaN,86.3,NaN,1080001600,NaN,NaN,0.0,001599,   NaN,180.6,32.707310,-117.236700,NaN,NaN,NaN,21.735, NaN,NaN,NaN, NaN, NaN
20040323,002710,1620,32.707180,-117.236750,NaN,21.733,32.870,46.982,394.68,0.0, NaN,16.841,16.804, NaN,22.674,   NaN,14.46,1009.56,89.46,14.41,122.6,121.8,2.0,2.5,302.9,302.2,2.0,2.5,NaN, NaN,NaN,86.3,NaN,1080001630,NaN,NaN,0.0,001629,   NaN,180.5,32.707310,-117.236700,NaN,NaN,NaN,21.738, NaN,NaN,NaN, NaN, NaN
20040323,002740,1650,32.707180,-117.236750,NaN,21.735,32.871,46.986,403.12,0.0, NaN,16.842,16.804, NaN,22.674,   NaN,14.46,1009.55,89.41,14.39,121.7,120.7,2.2,2.7,302.2,301.2,2.2,2.7,NaN, NaN,NaN,86.3,NaN,1080001660,NaN,NaN,0.0,001659,   NaN,180.5,32.707310,-117.236700,NaN,NaN,NaN,21.740, NaN,NaN,NaN, NaN, NaN
20040323,002810,1680,32.707190,-117.236750,NaN,21.738,32.871,46.989,406.94,0.0, NaN,16.844,16.806, NaN,22.673,   NaN,14.44,1009.55,89.40,14.38,115.5,116.4,2.3,2.8,295.9,296.9,2.3,2.8,NaN, NaN,NaN,86.3,NaN,1080001690,NaN,NaN,0.0,001689,   NaN,180.5,32.707310,-117.236700,NaN,NaN,NaN,21.743, NaN,NaN,NaN, NaN, NaN
20040323,002840,1710,32.707190,-117.236740,NaN,21.740,32.872,46.992,400.44,0.0, NaN,16.844,16.807, NaN,22.674,   NaN,14.47,1009.57,89.60,14.40,103.6,106.5,2.3,2.7,284.0,286.8,2.3,2.7,NaN, NaN,NaN,86.3,NaN,1080001721,NaN,NaN,0.0,001719,   NaN,180.1,32.707310,-117.236700,NaN,NaN,NaN,21.745, NaN,NaN,NaN, NaN, NaN
20040323,002910,1740,32.707190,-117.236750,NaN,21.743,32.873,46.996,401.70,0.0, NaN,16.843,16.805, NaN,22.673,   NaN,14.50,1009.55,89.50,14.40,103.8,103.2,2.2,2.6,284.0,283.4,2.2,2.6,NaN, NaN,NaN,86.3,NaN,1080001751,NaN,NaN,0.0,001749,   NaN,180.3,32.707310,-117.236700,NaN,NaN,NaN,21.748, NaN,NaN,NaN, NaN, NaN
20040323,002940,1770,32.707180,-117.236750,NaN,21.745,32.874,46.999,397.46,0.0, NaN,16.845,16.805, NaN,22.673,   NaN,14.48,1009.57,89.49,14.41,120.4,117.1,2.2,2.5,300.7,297.4,2.2,2.5,NaN, NaN,NaN,86.3,NaN,1080001781,NaN,NaN,0.0,001779,   NaN,180.5,32.707310,-117.236700,NaN,NaN,NaN,21.750, NaN,NaN,NaN, NaN, NaN
20040323,003010,1800,32.707190,-117.236740,NaN,21.748,32.874,47.003,388.78,0.0, NaN,16.846,16.806, NaN,22.673,   NaN,14.52,1009.56,89.59,14.41,123.7,126.0,2.0,2.4,304.2,306.5,2.0,2.4,NaN, NaN,NaN,86.3,NaN,1080001811,NaN,NaN,0.0,001809,   NaN,180.5,32.707310,-117.236700,NaN,NaN,NaN,21.753, NaN,NaN,NaN, NaN, NaN
20040323,003040,1830,32.707180,-117.236740,NaN,21.751,32.875,47.006,378.38,0.0, NaN,16.845,16.805, NaN,22.673,   NaN,14.53,1009.56,89.51,14.42,114.2,117.7,2.1,2.6,294.7,298.2,2.1,2.6,NaN, NaN,NaN,86.3,NaN,1080001840,NaN,NaN,0.0,001839,   NaN,180.5,32.707310,-117.236700,NaN,NaN,NaN,21.756, NaN,NaN,NaN, NaN, NaN
20040323,003110,1859,32.707180,-117.236750,NaN,21.753,32.876,47.009,367.79,0.0, NaN,16.844,16.805, NaN,22.673,   NaN,14.51,1009.54,89.23,14.41,110.4,112.0,2.5,2.8,290.8,292.4,2.5,2.8,NaN, NaN,NaN,86.3,NaN,1080001871,NaN,NaN,0.0,001869,   NaN,180.3,32.707310,-117.236700,NaN,NaN,NaN,21.758, NaN,NaN,NaN, NaN, NaN
20040323,003140,1890,32.707180,-117.236750,NaN,21.755,32.877,47.013,365.12,0.0, NaN,16.847,16.808, NaN,22.673,   NaN,14.45,1009.53,89.08,14.41,110.8,109.5,2.7,3.1,291.1,289.8,2.7,3.1,NaN, NaN,NaN,86.3,NaN,1080001900,NaN,NaN,0.0,001899,   NaN,180.3,32.707310,-117.236700,NaN,NaN,NaN,21.760, NaN,NaN,NaN, NaN, NaN
20040323,003210,1920,32.707180,-117.236750,NaN,21.758,32.877,47.016,351.17,0.0, NaN,16.845,16.806, NaN,22.673,   NaN,14.38,1009.51,89.09,14.36,118.3,116.6,2.4,2.8,298.6,296.9,2.4,2.8,NaN, NaN,NaN,86.3,NaN,1080001930,NaN,NaN,0.0,001929,   NaN,180.5,32.707310,-117.236700,NaN,NaN,NaN,21.763, NaN,NaN,NaN, NaN, NaN
20040323,003240,1950,32.707180,-117.236740,NaN,21.760,32.878,47.019,333.26,0.0, NaN,16.846,16.807, NaN,22.672,   NaN,14.39,1009.50,89.37,14.34,114.5,121.0,1.7,2.3,294.9,301.4,1.7,2.3,NaN, NaN,NaN,86.3,NaN,1080001960,NaN,NaN,0.0,001959,   NaN,180.5,32.707310,-117.236700,NaN,NaN,NaN,21.765, NaN,NaN,NaN, NaN, NaN
20040323,003310,1980,32.707170,-117.236740,NaN,21.763,32.879,47.023,318.18,0.0, NaN,16.846,16.808, NaN,22.672,   NaN,14.41,1009.49,89.50,14.35,111.6,121.4,1.2,1.9,292.0,301.9,1.2,1.9,NaN, NaN,NaN,86.3,NaN,1080001991,NaN,NaN,0.0,001989,   NaN,180.3,32.707310,-117.236700,NaN,NaN,NaN,21.768, NaN,NaN,NaN, NaN, NaN
20040323,003340,2010,32.707180,-117.236750,NaN,21.765,32.879,47.026,306.53,0.0, NaN,16.846,16.808, NaN,22.672,   NaN,14.39,1009.47,89.38,14.36,129.8,132.0,1.2,1.7,310.3,312.4,1.2,1.7,NaN, NaN,NaN,86.3,NaN,1080002020,NaN,NaN,0.0,002019,   NaN,180.5,32.707310,-117.236700,NaN,NaN,NaN,21.770, NaN,NaN,NaN, NaN, NaN
20040323,003410,2039,32.707190,-117.236740,NaN,21.768,32.880,47.029,298.74,0.0, NaN,16.845,16.806, NaN,22.672,   NaN,14.39,1009.45,89.50,14.34,138.7,138.3,1.2,1.5,319.2,318.7,1.2,1.5,NaN, NaN,NaN,86.3,NaN,1080002051,NaN,NaN,0.0,002049,   NaN,180.5,32.707310,-117.236700,NaN,NaN,NaN,21.773, NaN,NaN,NaN, NaN, NaN
20040323,003440,2070,32.707190,-117.236750,NaN,21.770,32.881,47.033,298.15,0.0, NaN,16.845,16.806, NaN,22.672,   NaN,14.45,1009.47,89.74,14.35,126.7,128.2,1.5,1.7,307.2,308.7,1.5,1.7,NaN, NaN,NaN,86.3,NaN,1080002080,NaN,NaN,0.0,002079,   NaN,180.6,32.707310,-117.236700,NaN,NaN,NaN,21.775, NaN,NaN,NaN, NaN, NaN
20040323,003510,2100,32.707190,-117.236740,NaN,21.772,32.882,47.036,303.39,0.0, NaN,16.844,16.807, NaN,22.672,   NaN,14.45,1009.46,89.46,14.35,108.6,107.9,1.8,2.1,289.1,288.4,1.8,2.1,NaN, NaN,NaN,86.3,NaN,1080002111,NaN,NaN,0.0,002109,   NaN,180.1,32.707310,-117.236700,NaN,NaN,NaN,21.777, NaN,NaN,NaN, NaN, NaN
20040323,003540,2130,32.707190,-117.236750,NaN,21.774,32.883,47.039,306.43,0.0, NaN,16.842,16.806, NaN,22.672,   NaN,14.42,1009.48,89.37,14.32,104.1,105.1,2.0,2.4,284.5,285.5,2.0,2.4,NaN, NaN,NaN,86.3,NaN,1080002140,NaN,NaN,0.0,002139,   NaN,180.3,32.707310,-117.236700,NaN,NaN,NaN,21.779, NaN,NaN,NaN, NaN, NaN
20040323,003610,2160,32.707180,-117.236740,NaN,21.777,32.883,47.042,303.76,0.0, NaN,16.842,16.805, NaN,22.672,   NaN,14.38,1009.49,89.31,14.32,98.7,102.6,2.2,2.7,278.9,282.8,2.2,2.7,NaN, NaN,NaN,86.3,NaN,1080002171,NaN,NaN,0.0,002169,   NaN,180.3,32.707310,-117.236700,NaN,NaN,NaN,21.782, NaN,NaN,NaN, NaN, NaN
20040323,003640,2190,32.707180,-117.236750,NaN,21.779,32.884,47.045,300.66,0.0, NaN,16.843,16.807, NaN,22.672,   NaN,14.34,1009.50,89.36,14.30,90.8,93.4,2.0,2.2,271.0,273.6,2.0,2.2,NaN, NaN,NaN,86.3,NaN,1080002201,NaN,NaN,0.0,002199,   NaN,180.5,32.707310,-117.236700,NaN,NaN,NaN,21.784, NaN,NaN,NaN, NaN, NaN
20040323,003710,2220,32.707180,-117.236750,NaN,21.782,32.885,47.049,297.65,0.0, NaN,16.842,16.806, NaN,22.672,   NaN,14.35,1009.48,89.54,14.28,105.8,111.1,1.5,1.7,286.2,291.5,1.5,1.7,NaN, NaN,NaN,86.3,NaN,1080002230,NaN,NaN,0.0,002229,   NaN,180.5,32.707310,-117.236700,NaN,NaN,NaN,21.787, NaN,NaN,NaN, NaN, NaN
20040323,003740,2250,32.707180,-117.236750,NaN,21.784,32.886,47.052,302.35,0.0, NaN,16.843,16.806, NaN,22.672,   NaN,14.37,1009.50,89.63,14.28,104.0,111.5,1.0,1.4,284.3,291.8,1.0,1.4,NaN, NaN,NaN,86.3,NaN,1080002261,NaN,NaN,0.0,002259,   NaN,180.1,32.707310,-117.236700,NaN,NaN,NaN,21.789, NaN,NaN,NaN, NaN, NaN
20040323,003810,2280,32.707180,-117.236750,NaN,21.786,32.886,47.055,311.44,0.0, NaN,16.844,16.807, NaN,22.672,   NaN,14.40,1009.50,89.77,14.31,83.9,112.9,0.5,1.0,264.2,293.1,0.5,1.0,NaN, NaN,NaN,86.3,NaN,1080002290,NaN,NaN,0.0,002289,   NaN,180.5,32.707310,-117.236700,NaN,NaN,NaN,21.791, NaN,NaN,NaN, NaN, NaN